Flag for Saudi Arabia Weather past 2 weeks in Medina, Saudi Arabia

Now
90 °F

Passing clouds.


Feels Like: 87 °F
Forecast: 78 / 99 °F
Wind: 14 mph from West

Location: Madinah

Current Time: May 6, 2015 at 9:35:06 PM

Latest Report: May 6, 2015 at 9:00 PM


Visibility: N/A

Pressure: 29.86 "Hg

Humidity: 29%

Dew point: 54 °F

Location of MedinaLocation

Historic Weather in Medina — Graph

°F

Medina temperature yesterday

Maximum temperature yesterday: 99 °F (at 3:00 PM)
Minimum temperature yesterday: 79 °F (at 5:00 AM)
Average temperature yesterday: 89 °F

Past Weeks' High & Low Weather Summary

 TemperatureHumidityPressure
High106 °F (May 2, 3:00 PM)48% (May 5, 5:00 AM)30.15 "Hg (May 5, 5:00 AM)
Low70 °F (Apr 25, 7:00 AM)2% (Apr 24, 3:00 PM)29.77 "Hg (May 5, 5:00 PM)
Average89 °F15%29.95 "Hg
* Reported Apr 21 8:00 PM — May 6 8:00 PM, Medina, Weather by CustomWeather, © 2015

Note: Actual official high and low records may vary slightly from our data, if they occured in-between our weather recording intervals... More about our weather records

Advertising

Medina weather history for previous 24 hours

 ConditionsComfort  
Time TempWeatherWind HumidityBarometerVisibility
8:00 PM
Wed, May 6
90 °FPassing clouds.16 mph31%29.83 "HgN/A
7:00 PM91 °FPassing clouds.18 mph28%29.80 "HgN/A
6:00 PM93 °FPartly sunny.14 mph28%29.80 "HgN/A
5:00 PM95 °FPartly sunny.21 mph26%29.77 "HgN/A
4:00 PM97 °FPartly sunny.16 mph22%29.77 "HgN/A
3:00 PM95 °FPartly sunny.14 mph26%29.80 "HgN/A
2:00 PM97 °FPartly sunny.16 mph22%29.80 "HgN/A
1:00 PM95 °FScattered clouds.14 mph25%29.83 "HgN/A
12:00 PM95 °FPassing clouds.16 mph25%29.86 "HgN/A
11:00 AM91 °FScattered clouds.13 mph30%29.89 "HgN/A
10:00 AM90 °FPassing clouds.6 mph31%29.89 "HgN/A
9:00 AM88 °FSunny.6 mph33%29.89 "Hg10 mi
8:00 AM84 °FScattered clouds.8 mph37%29.86 "HgN/A
7:00 AM82 °FScattered clouds.5 mph37%29.86 "HgN/A
6:00 AM79 °FPassing clouds.5 mph42%29.86 "HgN/A
5:00 AM81 °FPassing clouds.6 mph37%29.83 "HgN/A
4:00 AM82 °FPassing clouds.5 mph35%29.83 "HgN/A
3:00 AM84 °FClear.No wind35%29.83 "Hg10 mi
2:00 AM84 °FClear.5 mph35%29.86 "Hg10 mi
1:00 AM86 °FClear.7 mph33%29.86 "Hg10 mi
12:00 AM86 °FClear.7 mph33%29.86 "Hg10 mi
11:00 PM
Tue, May 5
88 °FClear.10 mph29%29.86 "Hg10 mi
10:00 PM90 °FClear.15 mph24%29.86 "Hg10 mi
9:00 PM90 °FClear.17 mph24%29.86 "Hg10 mi
Weather by CustomWeather, © 2015

See weather overviewHow to use our weather pages